Location: Milano
(45.4670°N, 9.2000°E)
Time: 19:16:06
(UTC+02:00)

ISS - Pass Details

Date: 19 May 2021
Orbit: 417 x 422 km, 51.6° (Epoch: 14 June)

Event Time Altitude Azimuth Distance (km) Brightness Sun altitude
Rises 23:41:40 0° 287° (WNW) 2,366 0.7 -20.9°
Reaches altitude 10° 23:43:58 10° 300° (WNW) 1,503 -0.2 -21.0°
Maximum altitude 23:46:55 27° 1° (N) 842 -1.6 -21.2°
Drops below altitude 10° 23:49:52 10° 62° (ENE) 1,506 -0.9 -21.5°
Enters shadow 23:50:02 - 63° (ENE) 1,566 -0.8 -21.5°
